• In Belarus
  • List of Countries
  • For 7 days
  • Water Temperature
  • Satellite Maps
  • Weather Map
  • Weather Widgets
  • user-avatar
    Login

    Hourly Weather Omaruru

    Today, 19 January, Saturday

    Time Temperature Precipitation Wind Pressure Humidity
    00:00 +26°C° 0 mm 1 mps 659 mmHg 25%
    01:00 +26°C° 0 mm 1 mps 659 mmHg 27%
    02:00 +25°C° 0 mm 1 mps 659 mmHg 28%
    03:00 +25°C° 0 mm 1 mps 659 mmHg 29%
    04:00 +24°C° 0 mm 1 mps 659 mmHg 31%
    05:00 +25°C° 0 mm 1 mps 660 mmHg 30%
    06:00 +25°C° 0 mm 2 mps 660 mmHg 29%
    07:00 +26°C° 0 mm 2 mps 660 mmHg 28%
    08:00 +28°C° 0 mm 3 mps 661 mmHg 24%
    09:00 +32°C° 0 mm 4 mps 661 mmHg 19%
    10:00 +34°C° 0 mm 5 mps 662 mmHg 14%
    11:00 +35°C° 0 mm 4 mps 662 mmHg 14%
    12:00 +36°C° 0 mm 3 mps 662 mmHg 14%
    13:00 +38°C° 0 mm 2 mps 661 mmHg 14%
    14:00 +38°C° 0 mm 2 mps 661 mmHg 13%
    15:00 +39°C° 0 mm 2 mps 661 mmHg 13%
    16:00 +39°C° 0 mm 2 mps 660 mmHg 13%
    17:00 +37°C° 0 mm 4 mps 660 mmHg 17%
    18:00 +35°C° 0 mm 5 mps 660 mmHg 21%
    19:00 +33°C° 0 mm 7 mps 660 mmHg 25%
    20:00 +32°C° 0 mm 5 mps 660 mmHg 29%
    21:00 +29°C° 0 mm 4 mps 660 mmHg 32%
    22:00 +28°C° 0 mm 3 mps 661 mmHg 36%
    23:00 +27°C° 0 mm 2 mps 660 mmHg 37%

    Tomorrow, 20 January, Sunday

    Time Temperature Precipitation Wind Pressure Humidity
    00:00 +26°C° 0 mm 2 mps 660 mmHg 38%
    01:00 +26°C° 0 mm 2 mps 660 mmHg 39%
    02:00 +25°C° 0 mm 2 mps 660 mmHg 40%
    03:00 +25°C° 0 mm 1 mps 660 mmHg 42%
    04:00 +24°C° 0 mm 1 mps 660 mmHg 44%
    05:00 +25°C° 0 mm 2 mps 660 mmHg 37%
    06:00 +26°C° 0 mm 3 mps 661 mmHg 31%
    07:00 +28°C° 0 mm 4 mps 662 mmHg 24%
    08:00 +30°C° 0 mm 5 mps 662 mmHg 21%
    09:00 +34°C° 0 mm 6 mps 662 mmHg 18%
    10:00 +36°C° 0 mm 7 mps 663 mmHg 14%
    11:00 +38°C° 0 mm 6 mps 663 mmHg 14%
    12:00 +39°C° 0 mm 5 mps 662 mmHg 14%
    13:00 +40°C° 0 mm 4 mps 662 mmHg 14%
    14:00 +40°C° 0 mm 4 mps 661 mmHg 15%
    15:00 +38°C° 0 mm 4 mps 661 mmHg 16%
    16:00 +38°C° 0 mm 4 mps 660 mmHg 16%
    17:00 +36°C° 0 mm 4 mps 660 mmHg 21%
    18:00 +34°C° 0 mm 4 mps 661 mmHg 25%
    19:00 +33°C° 0 mm 4 mps 661 mmHg 29%
    20:00 +30°C° 0 mm 4 mps 661 mmHg 32%
    21:00 +29°C° 0 mm 4 mps 661 mmHg 35%
    22:00 +28°C° 0 mm 3 mps 662 mmHg 38%
    23:00 +27°C° 0 mm 3 mps 661 mmHg 39%

    Day after tomorrow, 21 January, Monday

    Time Temperature Precipitation Wind Pressure Humidity
    00:00 +26°C° 0 mm 2 mps 661 mmHg 41%
    01:00 +26°C° 0 mm 2 mps 660 mmHg 42%
    02:00 +25°C° 0 mm 2 mps 660 mmHg 43%
    03:00 +24°C° 0 mm 2 mps 660 mmHg 45%
    04:00 +23°C° 0 mm 1 mps 659 mmHg 46%
    05:00 +24°C° 0 mm 1 mps 660 mmHg 44%
    06:00 +24°C° 0 mm 1 mps 660 mmHg 42%
    07:00 +24°C° 0 mm 1 mps 660 mmHg 41%
    08:00 +27°C° 0 mm 1 mps 661 mmHg 34%
    09:00 +30°C° 0 mm 2 mps 662 mmHg 27%
    10:00 +32°C° 0 mm 2 mps 662 mmHg 20%
    11:00 +35°C° 0 mm 2 mps 662 mmHg 16%
    12:00 +36°C° 0 mm 1 mps 662 mmHg 13%
    13:00 +39°C° 0 mm 1 mps 662 mmHg 10%
    14:00 +39°C° 0 mm 1 mps 662 mmHg 10%
    15:00 +40°C° 0 mm 2 mps 661 mmHg 9%
    16:00 +40°C° 0 mm 3 mps 661 mmHg 9%
    17:00 +37°C° 0 mm 4 mps 661 mmHg 16%
    18:00 +35°C° 0 mm 5 mps 660 mmHg 22%
    19:00 +32°C° 0 mm 6 mps 660 mmHg 29%
    20:00 +30°C° 0 mm 5 mps 661 mmHg 32%
    21:00 +29°C° 0 mm 3 mps 661 mmHg 35%
    22:00 +28°C° 0 mm 2 mps 662 mmHg 38%
    23:00 +27°C° 0 mm 2 mps 661 mmHg 39%

    22 January, Tuesday

    Time Temperature Precipitation Wind Pressure Humidity
    00:00 +27°C° 0 mm 1 mps 661 mmHg 40%
    01:00 +26°C° 0 mm 1 mps 661 mmHg 42%
    02:00 +26°C° 0 mm 1 mps 660 mmHg 42%
    03:00 +26°C° 0 mm 1 mps 660 mmHg 42%
    04:00 +25°C° 0 mm 1 mps 660 mmHg 42%
    05:00 +26°C° 0 mm 1 mps 661 mmHg 41%
    06:00 +26°C° 0 mm 1 mps 661 mmHg 40%
    07:00 +27°C° 0 mm 1 mps 662 mmHg 39%
    08:00 +29°C° 0 mm 2 mps 662 mmHg 35%
    09:00 +31°C° 0 mm 2 mps 662 mmHg 32%
    10:00 +34°C° 0 mm 3 mps 663 mmHg 28%
    11:00 +35°C° 0 mm 2 mps 662 mmHg 26%
    12:00 +36°C° 0 mm 2 mps 662 mmHg 24%
    13:00 +37°C° 0 mm 1 mps 662 mmHg 22%
    14:00 +37°C° 0 mm 2 mps 661 mmHg 23%
    15:00 +36°C° 0 mm 2 mps 661 mmHg 25%
    16:00 +35°C° 0 mm 2 mps 660 mmHg 26%
    17:00 +34°C° 0.2 mm 3 mps 660 mmHg 30%
    18:00 +32°C° 0.2 mm 4 mps 661 mmHg 33%
    19:00 +30°C° 0.2 mm 4 mps 661 mmHg 36%
    20:00 +29°C° 0.1 mm 4 mps 661 mmHg 37%
    21:00 +28°C° 0.1 mm 3 mps 661 mmHg 39%
    22:00 +27°C° 0.1 mm 2 mps 661 mmHg 40%
    23:00 +26°C° 0 mm 2 mps 661 mmHg 41%

    23 January, Wednesday

    Time Temperature Precipitation Wind Pressure Humidity
    00:00 +26°C° 0 mm 1 mps 661 mmHg 41%
    01:00 +25°C° 0 mm 1 mps 660 mmHg 42%
    02:00 +25°C° 0 mm 1 mps 660 mmHg 41%
    03:00 +25°C° 0 mm 1 mps 660 mmHg 40%
    04:00 +25°C° 0 mm 1 mps 660 mmHg 39%
    05:00 +25°C° 0 mm 1 mps 660 mmHg 37%
    06:00 +26°C° 0 mm 1 mps 660 mmHg 36%
    07:00 +26°C° 0 mm 1 mps 661 mmHg 34%
    08:00 +28°C° 0 mm 2 mps 661 mmHg 27%
    09:00 +31°C° 0 mm 2 mps 662 mmHg 21%
    10:00 +34°C° 0 mm 3 mps 662 mmHg 14%
    11:00 +35°C° 0 mm 3 mps 662 mmHg 13%
    12:00 +37°C° 0 mm 3 mps 661 mmHg 12%
    13:00 +38°C° 0 mm 3 mps 661 mmHg 10%
    14:00 +38°C° 0 mm 4 mps 661 mmHg 10%
    15:00 +38°C° 0 mm 4 mps 660 mmHg 10%
    16:00 +40°C° 0 mm 5 mps 660 mmHg 10%
    17:00 +37°C° 0 mm 5 mps 660 mmHg 13%
    18:00 +35°C° 0 mm 5 mps 660 mmHg 15%
    19:00 +33°C° 0 mm 5 mps 660 mmHg 18%
    20:00 +32°C° 0 mm 4 mps 660 mmHg 21%
    21:00 +29°C° 0 mm 3 mps 660 mmHg 25%
    22:00 +28°C° 0 mm 1 mps 660 mmHg 29%
    23:00 +28°C° 0 mm 1 mps 660 mmHg 30%

    24 January, Thursday

    Time Temperature Precipitation Wind Pressure Humidity
    00:00 +27°C° 0 mm 1 mps 659 mmHg 32%
    01:00 +27°C° 0 mm 1 mps 659 mmHg 33%
    02:00 +27°C° 0 mm 1 mps 659 mmHg 34%
    03:00 +26°C° 0 mm 1 mps 658 mmHg 34%
    04:00 +26°C° 0 mm 1 mps 658 mmHg 35%
    05:00 +26°C° 0 mm 1 mps 658 mmHg 34%
    06:00 +27°C° 0 mm 2 mps 659 mmHg 33%
    07:00 +28°C° 0 mm 2 mps 659 mmHg 32%
    08:00 +30°C° 0 mm 3 mps 659 mmHg 26%
    09:00 +33°C° 0 mm 3 mps 660 mmHg 21%
    10:00 +36°C° 0 mm 4 mps 660 mmHg 15%
    11:00 +37°C° 0 mm 3 mps 660 mmHg 14%
    12:00 +38°C° 0 mm 2 mps 660 mmHg 13%
    13:00 +40°C° 0 mm 1 mps 660 mmHg 12%
    14:00 +39°C° 0 mm 2 mps 659 mmHg 13%
    15:00 +39°C° 0 mm 2 mps 659 mmHg 14%
    16:00 +39°C° 0 mm 3 mps 659 mmHg 14%
    17:00 +37°C° 0 mm 4 mps 659 mmHg 18%
    18:00 +35°C° 0 mm 4 mps 659 mmHg 22%
    19:00 +33°C° 0 mm 5 mps 659 mmHg 26%
    20:00 +32°C° 0 mm 4 mps 659 mmHg 27%
    21:00 +30°C° 0 mm 3 mps 659 mmHg 28%
    22:00 +29°C° 0 mm 2 mps 660 mmHg 30%
    23:00 +28°C° 0 mm 2 mps 659 mmHg 32%
    Show more